Tracking 33199 objects as of 16-Feb-2026
HD Live streaming from Space Station
objects crossing your sky now

STARLINK-34617

Track STARLINK-34617 now!
10-day predictions
STARLINK-34617 is classified as:


NORAD ID: 65015
Int'l Code: 2025-161A
Perigee: 481.6 km
Apogee: 483.2 km
Inclination: 53.2 °
Period: 94.1 minutes
Semi major axis: 6853 km
RCS: Unknown
Launch date: July 30, 2025
Source: United States (US)
Launch site: AIR FORCE EASTERN TEST RANGE (AFETR)
Your satellite tracking list
Your tracking list is empty




NASA's NSSDC Master Catalog

Two Line Element Set (TLE):
1 65015U 25161A   26047.37928919  .00026343  00000-0  89862-3 0  9993
2 65015  53.1583  33.4398 0001160  64.1271 295.9850 15.30192185 30964
Source of the keplerian elements: AFSPC